Regional Weather Roundup
Issued by NWS

Current Version | Previous Version | Text Only | Print | Product List | Glossary On
Versions: 1 2 3 4 5 6 7 8 9 10 11 12 13 14 15 16 17 18 19 20 21 22 23 24 25 26 27 28 29 30 31 32 33 34 35 36 37 38 39 40 41 42 43 44 45 46 47 48 49 50
000
ASUS45 KREV 022010
RWRNV
NEVADA REGIONAL WEATHER ROUNDUP
NATIONAL WEATHER SERVICE RENO NV
1200 PM PST MON MAR 02 2015

NOTE: "FAIR" INDICATES FEW OR NO CLOUDS BELOW 12,000 FEET WITH NO
SIGNIFICANT WEATHER AND/OR OBSTRUCTIONS TO VISIBILITY.

NVZ001-003-004-022100-
WESTERN NEVADA

CITY           SKY/WX    TMP DP  RH WIND       PRES   REMARKS
RENO           MOSUNNY   46  25  43 CALM      29.77F
CARSON CITY    PTSUNNY   45  27  49 SW6       29.77S
MINDEN         CLOUDY    41  25  52 CALM      29.79
SLIDE MTN        N/A     28  28 100 CALM        N/A
FALLON         PTSUNNY   46  29  51 VRB5      29.76F
LOVELOCK       SUNNY     44  33  65 S8        29.76F
HAWTHORNE      SUNNY     45  28  53 CALM      29.78F
$$

NVZ002-CAZ072-073-022100-
NORTHERN AND CENTRAL SIERRA

CITY           SKY/WX    TMP DP  RH WIND       PRES   REMARKS
S. LAKE TAHOE  PTSUNNY   35  23  61 VRB3      29.76S
TRUCKEE        LGT SNOW  30  28  93 NW3       29.79R VSB 1
SQUAW VLY 8000   N/A     28  25  86 SW10        N/A
BLUE CANYON    SNOW      33  30  88 S8        29.81R VSB 1/4
MAMMOTH LAKES  CLOUDY    32  23  69 CALM      29.75S
BRIDGEPORT     CLOUDY    36  15  42 CALM      29.71F
$$

NVZ030-031-036-022100-
NORTHERN NEVADA

CITY           SKY/WX    TMP DP  RH WIND       PRES   REMARKS
ELKO           PTSUNNY   44  21  40 NW7       29.68F
WINNEMUCCA     SUNNY     46  23  40 NW7       29.75F
WENDOVER       CLOUDY    37  27  65 S6        29.73F
$$

NVZ035-037-022100-
CENTRAL NEVADA

CITY           SKY/WX    TMP DP  RH WIND       PRES   REMARKS
ELY            CLOUDY    33  27  78 NE8       29.67F
EUREKA           N/A     33  29  85 N6        29.70F
$$

NVZ013-014-022100-
SOUTH CENTRAL NEVADA

CITY           SKY/WX    TMP DP  RH WIND       PRES   REMARKS
TONOPAH        CLOUDY    39  28  64 NW10G17   29.74F
$$

NVZ017-020-022-022100-
SOUTHERN NEVADA

CITY           SKY/WX    TMP DP  RH WIND       PRES   REMARKS
LAS VEGAS      PTSUNNY   56  36  47 SW22G30   29.75F
N. LAS VEGAS   PTSUNNY   55  35  47 SW15G23   29.77F
NELLIS AFB     PTSUNNY   55  39  55 S18       29.77F
HENDERSON      MOSUNNY   53  37  54 S21G31    29.80R
MERCURY        LGT RAIN  41  37  86 NW7G20    29.78R
$$


USA.gov is the U.S. government's official web portal to all federal, state and local government web resources and services.